SP9SVH-2 Weather Reports


time (UTC)temp
C
wind
direction
speed
KPH
gust
KPH
rain 1hr
cm
rain 24hr
cm
rain mn
cm
humidity
%
barometer
mb
20260508011924 10 228 0.0 0.0 0.00 0.38 0.00 9 1013.8
20260508010033 11 228 0.0 0.0 0.00 0.38 0.00 9 1013.8
20260508002333 11 228 0.0 0.0 0.00 0.38 0.00 9 1014.0
20260508000737 11 228 0.0 0.0 0.00 0.38 0.00 9 1014.0
20260507234953 11 193 0.0 1.6 0.00 0.38 0.00 9 1013.9
20260507233056 11 194 0.0 0.0 0.00 0.38 0.00 9 1014.0
20260507231203 11 194 0.0 0.0 0.00 0.38 0.00 9 1014.1
20260507225358 11 194 0.0 0.0 0.00 0.38 0.00 9 1014.3
20260507223452 11 303 0.0 1.6 0.00 0.38 0.00 9 1014.1
20260507221633 11 249 0.0 1.6 0.00 0.38 0.00 9 1014.1
20260507215801 11 276 0.0 3.2 0.00 0.38 0.38 9 1014.2
20260507213833 12 82 1.6 3.2 0.00 0.38 0.38 9 1013.8
20260507212232 12 240 0.0 0.0 0.00 0.38 0.38 9 1013.9
20260507210435 12 238 0.0 0.0 0.00 0.38 0.38 9 1013.6
20260507210313 12 238 0.0 0.0 0.00 0.38 0.38 9 1013.6
20260507204633 12 196 0.0 0.0 0.00 0.38 0.38 9 1013.6
20260507202832 12 187 0.0 0.0 0.00 0.38 0.38 9 1013.4
20260507200953 12 188 0.0 0.0 0.00 0.38 0.38 9 1013.2
20260507195357 12 188 0.0 0.0 0.00 0.38 0.38 9 1012.9
20260507193655 12 188 0.0 0.0 0.00 0.38 0.38 9 1012.8
20260507192045 12 188 0.0 0.0 0.00 0.38 0.38 9 1012.7
20260507190338 12 188 0.0 0.0 0.00 0.38 0.38 9 1012.3
20260507182915 12 188 0.0 0.0 0.00 0.38 0.38 9 1011.9
20260507180920 13 188 0.0 0.0 0.00 0.38 0.38 9 1011.8
20260507175113 13 188 0.0 0.0 0.00 0.38 0.38 9 1011.8
20260507173213 13 188 0.0 0.0 0.00 0.38 0.38 9 1011.7
20260507165638 13 230 0.0 0.0 0.00 0.38 0.38 9 1011.6
20260507164003 13 230 0.0 0.0 0.00 0.38 0.38 9 1011.4
20260507162225 14 230 0.0 0.0 0.00 0.38 0.38 9 1011.6
20260507160310 13 228 0.0 0.0 0.00 0.38 0.38 9 1011.7
20260507154543 13 228 0.0 0.0 0.00 0.38 0.38 9 1011.7
20260507152803 13 228 0.0 0.0 0.13 0.51 0.38 9 1012.1
20260507150918 13 238 0.0 0.0 0.13 0.51 0.38 9 1012.1
20260507145054 13 222 0.0 3.2 0.38 0.51 0.38 9 1012.2
20260507143434 13 231 1.6 3.2 0.23 0.38 0.23 9 1011.8
20260507141736 13 240 1.6 3.2 0.23 0.38 0.23 9 1011.6
20260507140010 16 207 6.4 9.7 0.00 0.00 0.00 7 1011.3
20260507134330 18 321 3.2 6.4 0.00 0.00 0.00 6 1011.3
20260507132532 19 231 0.0 0.0 0.00 0.00 0.00 6 1010.8
20260507130715 18 231 0.0 0.0 0.00 0.00 0.00 7 1010.6
20260507124723 18 208 0.0 0.0 0.00 0.00 0.00 6 1010.5
20260507122910 19 208 0.0 0.0 0.00 0.00 0.00 6 1010.6
20260507121130 20 209 0.0 0.0 0.00 0.00 0.00 6 1010.6
20260507115238 21 281 1.6 1.6 0.00 0.00 0.00 5 1010.6
20260507113443 20 281 0.0 1.6 0.00 0.00 0.00 5 1010.4
20260507111523 21 237 0.0 1.6 0.00 0.00 0.00 5 1010.4
20260507105658 21 217 0.0 1.6 0.00 0.00 0.00 5 1010.2
20260507104030 21 243 0.0 0.0 0.00 0.00 0.00 5 1010.5
20260507102433 21 217 0.0 0.0 0.00 0.00 0.00 5 1010.0
20260507100623 21 274 0.0 1.6 0.00 0.00 0.00 5 1010.0
20260507094953 22 231 0.0 1.6 0.00 0.00 0.00 4 1010.0
20260507093050 22 205 0.0 0.0 0.00 0.00 0.00 4 1009.9
20260507091323 22 190 0.0 0.0 0.00 0.00 0.00 5 1009.8
20260507083638 21 228 0.0 1.6 0.00 0.00 0.00 4 1009.4
20260507081813 21 243 0.0 3.2 0.00 0.00 0.00 4 1009.4
20260507074530 21 225 1.6 6.4 0.00 0.00 0.00 5 1009.0
20260507072843 21 217 0.0 0.0 0.00 0.00 0.00 5 1009.1
20260507070903 20 194 0.0 4.8 0.00 0.00 0.00 5 1008.9
20260507065030 20 190 0.0 0.0 0.00 0.00 0.00 5 1008.7
20260507063123 20 265 0.0 0.0 0.00 0.00 0.00 6 1008.5
20260507061343 18 242 0.0 0.0 0.00 0.00 0.00 6 1008.7
20260507055656 17 236 0.0 0.0 0.00 0.00 0.00 6 1008.0
20260507054003 16 253 0.0 1.6 0.00 0.00 0.00 6 1008.3
20260507052050 16 173 0.0 1.6 0.00 0.00 0.00 7 1007.7
20260507050353 14 222 0.0 0.0 0.00 0.00 0.00 7 1008.0
20260507044623 13 223 0.0 3.2 0.00 0.00 0.00 7 1007.9
20260507042850 14 230 0.0 0.0 0.00 0.00 0.00 7 1008.1
20260507041020 14 238 1.6 3.2 0.00 0.00 0.00 7 1007.6
20260507035243 13 224 0.0 1.6 0.00 0.00 0.00 7 1007.8
20260507033258 13 224 0.0 0.0 0.00 0.00 0.00 7 1007.7
20260507031643 13 228 1.6 3.2 0.00 0.00 0.00 7 1007.8
20260507025823 13 227 0.0 0.0 0.00 0.00 0.00 7 1007.8
20260507024038 13 215 0.0 0.0 0.00 0.00 0.00 7 1007.6
20260507022243 13 227 0.0 0.0 0.00 0.00 0.00 7 1007.6
20260507020623 13 221 0.0 0.0 0.00 0.00 0.00 7 1007.4